Dewpoint
71 72 72 72 73 73 73 74 74 73 73 74 73 74 74 75 73 73 75 74 74 74 74 75 75 75 74 75 73 75 76 76 76 77 77 77 77 77 77 77 77 75 76 76 75 75 76 75 75 75 76 74 73 72 69 69 71 72 72 72 69 72 72 72 70 69 71 73 70 68 69 71 68 71 70 68 70 71 72 73 76 74 72 71 72
70 72 72 72 72 72 72 72 73 74 72 73 73 73 74 74 75 75 74 75 75 73 74 74 75 75 74 75 76 75 77 78 75 75 76 76 76 74 75 77 77 77 77 77 76 75 76 76 75 74 75 74 73 71 70 68 69 68 69 70 69 70 73 71 70 70 70 71 71 71 70 71 69 71 71 70 70 72 71 72 71 70 70 72 72
71 72 72 72 72 72 72 72 73 73 71 71 70 70 71 73 75 75 73 73 75 74 74 73 76 76 75 76 77 76 77 76 76 76 76 77 76 75 74 75 76 76 76 76 76 76 75 75 74 74 73 73 73 72 71 72 71 71 71 71 72 71 71 74 72 71 71 70 72 70 70 72 71 71 72 71 74 74 75 73 69 67 69 70 71
73 74 73 72 71 71 72 71 70 70 70 70 70 70 69 70 73 73 73 72 73 75 75 74 76 77 76 76 77 77 77 76 76 76 77 77 76 77 77 76 76 75 75 75 75 76 75 75 74 74 74 75 75 75 74 73 73 74 73 74 74 73 73 74 75 73 72 71 73 72 72 72 72 72 72 73 72 73 72 72 72 72 71 69 70
74 73 74 74 73 72 71 70 70 70 69 68 69 69 69 69 71 71 71 71 72 74 76 76 76 77 74 75 76 77 76 76 76 75 76 76 76 76 76 76 76 76 76 76 76 76 76 75 74 74 75 75 74 74 74 75 75 74 73 73 73 73 73 74 75 75 74 73 72 74 75 74 74 74 74 73 72 73 75 75 74 73 74 71 69
74 74 74 73 74 74 73 71 70 70 70 69 69 69 69 70 70 71 70 71 72 71 73 74 74 76 76 75 75 76 77 77 77 77 75 75 76 75 76 76 75 76 75 75 75 75 75 75 75 75 75 74 73 74 75 76 75 74 74 75 74 75 75 75 75 75 75 74 74 73 75 73 74 75 75 75 72 72 73 74 74 76 77 73 70
75 74 73 73 74 74 74 74 73 70 71 71 70 70 70 69 69 69 70 70 70 70 70 72 74 74 75 74 73 74 76 75 77 77 76 76 76 76 74 74 75 75 75 74 73 74 74 74 75 75 75 75 74 74 74 75 74 75 76 76 75 75 74 74 75 74 74 74 73 73 73 74 75 73 74 77 76 75 74 72 72 73 76 77 75
75 74 74 73 74 74 75 75 75 73 73 74 73 72 71 71 71 71 71 71 70 69 69 69 70 72 72 72 74 74 75 75 76 77 76 75 75 75 75 75 73 74 74 75 73 72 73 73 72 73 74 75 75 75 75 75 75 75 74 75 75 75 74 73 74 73 73 72 71 71 72 74 74 74 75 76 76 75 75 73 71 72 73 75 76
74 75 75 75 74 74 74 75 76 76 74 74 74 73 73 73 73 73 73 72 70 70 70 70 70 71 72 73 73 73 71 73 73 75 75 76 75 74 74 75 74 74 74 72 72 73 73 72 71 71 74 76 77 76 76 76 75 75 76 76 76 75 75 74 73 74 73 73 72 73 72 73 74 74 72 73 72 71 72 73 73 73 73 73 75
73 73 73 73 74 74 74 75 75 75 74 74 75 74 73 73 72 72 72 72 72 73 72 71 70 70 71 72 72 71 72 72 75 74 74 74 74 73 73 75 75 74 74 74 72 71 71 71 70 74 76 77 77 76 73 72 73 74 75 76 76 76 75 74 74 73 73 72 71 70 69 69 67 69 69 70 71 74 73 74 73 72 73 73 74
72 72 72 73 74 74 74 74 74 74 74 75 76 75 75 75 74 74 73 72 73 74 73 71 70 69 69 69 70 69 70 71 74 69 67 68 73 73 74 75 75 75 74 75 74 72 71 72 72 73 76 77 76 74 73 72 71 71 71 73 75 76 74 73 73 73 72 71 70 71 69 70 71 70 69 67 68 71 71 73 73 73 72 72 71
71 72 72 72 73 72 73 72 73 73 73 74 74 74 75 75 75 74 73 72 73 72 71 72 73 71 69 69 68 68 70 68 65 67 67 66 69 74 72 73 72 73 73 72 72 72 72 72 71 70 71 73 73 74 76 75 71 70 70 70 70 71 73 75 75 74 74 72 72 71 71 71 71 72 69 67 70 71 72 73 74 74 73 72 72
71 71 72 72 72 72 72 72 72 72 72 73 73 73 72 72 73 73 73 73 72 73 73 72 72 72 72 72 70 70 72 65 63 63 63 64 65 70 71 72 72 72 72 72 73 74 74 73 72 72 70 73 74 74 75 76 76 73 71 71 71 70 67 67 69 75 74 74 73 73 72 72 72 73 72 73 74 74 74 72 73 74 74 73 73
68 68 70 71 72 71 71 71 71 71 72 71 72 72 72 72 73 73 73 73 72 72 71 73 73 74 73 73 74 71 70 64 61 61 61 61 63 66 71 71 71 71 72 73 72 72 73 73 73 73 73 73 75 74 74 74 75 75 76 75 75 74 74 68 66 67 71 71 73 73 74 75 74 75 75 76 75 73 73 72 73 72 73 73 75
66 67 68 69 70 70 70 70 70 71 71 71 71 71 71 71 71 71 71 72 71 72 72 72 72 72 71 72 71 69 66 60 59 60 59 60 62 66 71 69 69 71 71 72 73 73 74 72 73 72 73 74 74 74 74 74 74 74 74 73 73 73 74 72 71 71 72 70 71 72 73 74 75 75 75 76 76 76 75 74 74 74 74 75 75
66 67 67 68 68 68 68 68 68 68 69 69 68 68 68 70 70 71 70 71 71 71 72 71 71 71 71 71 70 69 65 58 59 59 59 60 62 72 74 72 71 71 72 72 72 73 73 73 74 74 74 74 73 70 71 74 73 74 74 74 73 73 72 74 69 69 72 71 72 71 70 70 67 74 74 72 73 74 74 75 75 75 74 73 72
64 65 66 67 68 68 69 68 68 68 69 68 68 69 69 70 70 70 70 70 70 70 70 70 71 71 70 70 69 68 64 59 56 56 57 59 67 73 73 73 73 73 72 72 72 71 71 72 73 72 72 74 66 61 64 69 73 73 73 73 72 71 71 71 68 64 63 62 62 62 62 62 62 61 60 61 67 70 71 71 71 70 70 70 70
63 64 65 66 67 68 69 69 69 69 68 68 68 69 69 70 70 70 70 69 68 68 68 68 69 69 69 69 67 65 63 59 55 54 55 57 68 72 72 73 73 74 73 73 73 73 74 72 72 74 73 73 61 59 62 70 73 73 72 72 72 71 71 70 69 68 62 60 60 60 60 60 61 60 61 60 61 64 70 69 68 67 67 67 67
62 63 64 65 66 67 68 68 67 68 68 68 69 68 68 69 70 70 69 68 68 68 68 66 66 68 68 67 68 65 64 62 55 54 54 55 66 72 72 72 72 73 72 73 73 73 74 73 73 72 71 64 56 57 60 69 73 73 73 72 71 71 71 71 71 71 72 72 73 76 75 68 72 73 73 66 64 68 68 69 68 68 68 69 70
62 64 65 67 67 67 66 66 66 66 65 65 66 67 67 67 66 67 67 67 66 66 67 66 65 65 66 67 67 66 65 64 61 54 53 54 57 69 68 68 68 70 71 71 71 72 72 73 69 60 58 58 56 55 56 57 67 73 73 72 71 72 72 71 72 72 74 73 73 73 74 74 73 73 73 73 73 73 71 71 70 71 71 71 71
64 64 64 63 62 62 63 63 62 62 64 65 64 65 65 64 65 64 64 65 65 66 65 65 64 64 64 66 66 67 66 65 63 54 53 53 55 61 64 64 65 67 68 68 68 68 69 69 70 61 57 55 53 52 51 54 57 66 72 73 73 71 68 72 72 72 73 73 73 72 72 72 72 72 71 72 71 71 71 72 72 72 71 70 70
63 63 63 62 61 61 61 62 62 62 63 63 63 63 63 62 62 62 61 62 62 62 62 62 62 62 63 64 64 66 66 65 66 58 54 52 52 54 61 61 61 65 65 65 64 64 65 64 65 63 56 53 51 50 49 51 54 63 69 58 56 58 68 70 71 72 72 72 71 71 71 70 70 70 70 70 70 71 71 71 71 72 72 72 71
62 62 62 61 62 62 62 61 61 60 61 62 62 61 62 62 61 61 61 62 61 61 62 61 60 60 61 61 62 63 64 65 62 63 56 52 50 52 53 58 56 64 63 62 63 63 64 65 66 63 54 50 49 49 50 51 56 65 58 54 55 56 63 69 70 70 71 71 71 71 70 70 70 70 70 71 71 73 71 72 72 72 72 72 72
62 61 61 61 60 60 61 61 62 62 61 61 61 61 61 61 62 62 62 61 61 61 62 62 61 60 59 60 61 61 62 63 62 61 60 53 51 50 52 53 54 61 63 62 63 62 64 65 63 53 50 49 50 52 52 55 63 54 52 54 57 60 68 69 68 70 70 69 69 70 70 70 70 70 70 71 71 73 72 72 72 72 72 72 73
61 60 59 59 60 60 62 62 62 62 62 61 60 60 60 60 59 61 62 61 61 61 60 61 61 59 60 60 59 60 61 61 61 61 60 59 54 53 53 54 54 55 62 61 62 62 59 53 53 54 55 56 58 60 62 63 58 58 57 58 66 69 70 69 69 69 69 68 68 69 69 69 69 70 71 72 72 72 72 72 72 73 73 73 74
62 60 58 58 57 57 57 57 58 60 59 59 60 59 59 58 59 59 59 60 61 60 59 59 60 60 58 59 59 59 59 60 60 61 62 61 60 56 55 56 59 59 61 60 59 58 57 56 56 57 58 60 64 64 65 64 60 59 60 64 67 67 67 67 68 68 69 68 69 68 69 70 70 71 72 72 71 71 71 71 71 71 71 71 71
62 60 59 58 59 59 57 54 54 56 57 56 57 57 57 58 58 58 58 58 59 59 59 59 58 58 57 57 58 58 58 58 59 60 61 61 60 60 62 61 59 60 59 59 60 59 58 58 58 56 57 58 60 62 61 62 63 62 62 61 63 64 64 65 64 63 63 64 65 66 67 68 70 71 70 71 70 71 71 70 70 69 70 70 70
60 60 59 59 58 57 57 58 56 54 55 54 54 55 56 56 56 57 58 58 58 58 58 58 58 57 57 57 57 57 56 55 57 58 58 58 59 58 58 60 60 60 58 58 61 59 58 59 56 56 57 57 57 57 57 60 60 59 59 58 60 63 62 63 62 61 61 62 63 64 64 65 66 67 68 68 69 70 71 70 70 70 70 70 70
60 59 58 57 58 59 57 56 54 54 55 57 57 57 56 55 57 57 58 58 58 58 57 57 57 57 56 56 56 56 56 55 56 48 53 46 53 58 58 58 58 59 58 51 63 58 58 56 54 55 54 53 54 54 53 54 56 56 56 57 58 58 58 59 58 57 58 60 60 60 60 62 64 65 64 64 66 67 69 69 71 70 71 71 69
58 58 57 57 57 57 57 56 57 56 53 53 54 55 55 50 53 58 57 55 50 47 49 56 56 58 56 56 58 56 54 56 46 43 42 42 43 44 45 44 44 53 51 50 58 57 55 54 52 51 51 51 51 52 51 52 53 53 54 55 55 54 55 56 55 54 57 58 58 58 59 61 62 61 61 62 64 65 65 64 66 67 68 69 69
56 55 56 56 56 56 55 55 56 57 56 56 56 55 55 56 45 46 51 51 47 43 42 43 46 48 58 56 56 48 48 45 41 41 42 42 42 43 43 42 43 45 47 60 56 54 53 52 51 51 51 51 50 50 51 51 51 52 52 53 53 52 52 52 52 53 55 55 55 56 58 58 59 59 60 60 59 59 60 61 61 62 62 63 66
54 53 54 54 55 56 55 56 55 55 55 55 56 55 54 54 56 47 44 47 45 42 42 42 42 44 44 48 57 57 52 45 41 41 42 42 43 42 41 40 41 44 47 49 55 53 51 51 50 50 50 50 49 50 50 49 50 51 51 51 51 51 50 51 51 53 53 53 53 54 55 56 57 57 56 56 56 57 57 57 57 58 59 60 62
54 54 54 54 54 54 53 54 55 54 54 54 54 54 53 52 52 54 56 44 43 43 42 42 42 43 43 42 41 43 43 42 42 42 42 43 43 43 42 41 41 43 48 53 53 51 50 50 50 50 49 49 49 49 50 49 49 50 49 50 49 49 50 51 52 52 52 52 53 53 54 55 56 55 54 54 54 54 54 54 55 56 57 57 58
53 53 53 53 53 53 53 54 54 54 54 54 53 53 53 53 52 53 52 52 53 50 45 45 45 46 43 42 42 43 42 41 41 42 41 42 43 43 45 54 43 42 50 53 52 51 49 49 49 50 49 50 49 48 49 49 50 50 50 49 49 49 50 52 51 50 51 51 51 52 53 53 54 53 52 52 52 52 52 52 53 53 54 54 55
52 52 53 53 52 53 53 53 52 53 53 53 52 52 52 53 52 52 52 52 51 51 50 53 48 45 52 49 45 44 43 43 43 42 41 41 43 41 41 57 55 49 50 50 49 48 48 48 49 48 49 48 48 48 48 49 49 49 49 49 49 48 49 49 49 50 50 49 50 51 51 52 53 52 51 50 50 49 50 50 51 51 52 52 53
52 51 50 51 52 51 51 52 51 51 52 51 52 50 50 51 50 50 50 50 49 49 49 51 52 50 49 47 46 45 44 44 43 43 42 40 40 42 54 50 47 48 48 48 48 47 48 47 47 47 47 47 48 48 47 47 48 47 48 48 48 49 49 49 49 50 50 49 49 50 50 51 51 50 49 49 49 48 48 49 49 49 50 51 52
48 48 49 50 50 50 50 50 50 50 49 50 50 50 50 51 50 48 49 49 48 49 48 50 50 51 50 52 52 47 46 46 45 46 45 45 45 54 49 48 48 48 47 47 47 47 46 47 47 47 46 46 46 46 47 46 47 48 48 49 49 49 48 48 48 50 49 48 48 49 50 49 49 49 48 48 47 47 47 48 48 48 49 49 50
47 46 47 49 50 51 49 49 47 47 48 48 49 49 49 49 49 47 47 47 47 47 47 47 46 47 47 49 49 48 48 47 47 46 45 45 54 49 48 48 48 47 46 47 47 47 46 47 46 47 47 46 46 46 45 47 45 46 46 48 48 48 49 48 49 49 49 46 46 47 48 47 48 48 47 46 46 45 45 46 46 46 48 50 50
47 46 45 46 46 48 48 46 46 45 46 45 46 47 48 47 47 46 46 46 46 45 46 46 46 46 47 47 47 47 48 46 47 48 48 47 48 48 48 47 47 47 47 46 46 47 46 46 46 46 46 46 46 46 46 45 45 46 47 47 47 47 47 46 46 46 45 45 45 45 45 46 46 46 46 45 45 45 45 45 45 46 47 48 50
44 44 43 43 44 44 44 44 44 45 45 44 44 46 47 47 45 46 44 44 44 45 45 44 45 46 47 47 46 46 43 45 46 46 46 46 46 47 46 46 47 46 46 46 45 45 45 45 45 46 46 45 45 45 45 46 45 45 46 45 45 46 46 46 45 43 44 43 43 43 43 45 45 45 44 43 43 43 43 44 45 46 47 48 49
43 42 42 41 41 43 43 43 44 45 44 44 45 46 47 47 46 44 43 43 43 44 44 44 44 45 46 46 43 44 46 44 44 45 45 46 46 45 45 46 46 46 45 45 44 44 45 44 45 44 45 45 45 44 44 44 44 44 44 44 44 45 44 44 44 43 43 42 41 41 42 42 42 41 40 41 42 42 43 43 44 44 45 47 48
39 40 42 41 43 43 43 43 43 45 46 46 45 45 46 44 43 43 43 43 43 43 42 41 42 43 44 43 41 40 44 45 44 44 44 43 44 45 44 45 45 45 45 43 43 44 44 44 43 43 43 44 44 44 43 43 43 43 43 43 43 44 44 42 42 42 42 40 40 40 41 41 40 40 40 41 40 40 40 41 41 43 43 45 47
43 42 43 43 43 43 42 42 43 43 44 43 44 45 44 43 43 42 42 42 41 41 41 40 40 42 43 44 43 43 41 43 44 44 44 44 44 44 43 42 42 43 43 43 42 43 43 42 42 42 42 43 44 44 43 43 43 42 42 43 43 43 43 42 40 40 39 39 39 40 40 39 38 37 37 39 39 39 39 41 41 42 43 44 46
43 43 43 42 42 43 43 43 43 43 43 43 44 44 43 43 42 42 40 41 40 41 39 39 39 39 41 40 41 40 40 41 42 42 43 43 43 42 42 43 43 44 43 43 42 42 42 41 41 41 42 42 43 44 43 43 43 42 43 43 42 42 41 40 40 40 38 37 37 38 38 38 37 36 36 37 37 38 38 40 41 41 43 43 44
43 42 41 40 42 42 42 43 41 42 42 41 41 42 41 39 39 39 39 38 39 40 38 38 38 39 39 39 40 39 40 40 40 40 40 40 41 43 44 44 45 45 43 42 41 42 42 41 41 42 42 41 42 42 42 43 43 43 43 42 42 40 39 40 39 38 38 39 37 37 36 35 35 34 34 35 36 37 36 38 38 40 41 43 45
41 43 42 41 41 41 41 40 41 41 41 40 39 39 39 38 38 39 38 38 38 39 39 39 39 39 38 38 38 39 38 39 40 40 41 42 43 44 45 44 43 43 42 41 42 42 42 42 41 41 41 41 42 42 42 42 42 43 43 42 40 40 39 39 39 39 38 38 37 37 37 36 35 35 37 36 36 36 37 38 40 41 42 43 44
43 43 42 42 41 41 42 42 41 40 40 39 39 38 38 37 38 38 38 38 39 39 38 38 36 35 36 37 37 39 40 40 40 41 41 42 42 43 44 43 42 42 41 41 42 40 40 40 40 41 41 41 41 42 41 41 41 41 40 39 40 39 39 38 38 38 38 38 37 35 35 36 36 35 36 36 36 35 37 37 38 41 43 44 44
42 42 41 41 40 39 40 40 40 39 38 39 38 38 38 38 37 37 36 36 36 36 35 35 35 35 37 38 39 39 39 39 39 41 40 41 42 43 43 42 41 41 40 39 39 38 39 39 40 40 41 41 41 41 41 40 39 38 38 39 39 38 38 38 39 38 37 36 36 34 35 36 35 35 35 36 36 36 37 37 39 41 43 44 45
41 40 40 40 38 37 38 37 38 36 36 36 37 37 37 36 36 36 36 35 36 35 34 34 35 37 38 39 38 38 38 38 38 39 40 41 42 41 41 41 41 39 38 38 37 37 38 38 39 39 39 40 40 40 40 40 39 38 38 38 39 38 37 38 38 38 37 38 37 34 36 36 35 36 36 37 38 39 38 40 41 42 43 44 44
39 40 38 37 37 37 38 37 36 36 37 37 37 37 36 37 35 35 35 34 35 35 35 36 37 37 36 36 37 37 37 38 38 38 39 39 39 40 40 39 38 37 36 36 36 36 36 37 38 38 39 40 39 39 39 39 38 38 38 38 38 37 36 36 37 37 37 37 37 36 36 36 36 35 36 37 38 39 39 41 42 43 43 44 45
38 38 38 37 37 37 37 37 36 36 38 37 38 36 36 36 35 34 35 34 34 34 35 36 36 35 35 36 37 37 37 37 38 38 37 37 38 39 38 37 37 36 36 36 36 35 36 36 36 37 37 38 38 37 37 36 36 37 39 39 37 35 35 36 37 35 35 35 35 36 35 36 37 37 37 38 39 39 40 42 43 43 44 45 46